Location: Clanezzo
(45.7500°N, 9.6000°E)
Time: 00:00:04
(UTC+00:00)

USA 308 - Pass Details

Date: 26 September 2021
Orbit: 566 x 573 km, 54.0° (Epoch: 23 September)

Event Time Altitude Azimuth Distance (km) Brightness Sun altitude
Rises 19:24:38 0° 303° (WNW) 2,773 7.8 -23.5°
Reaches altitude 10° 19:26:55 10° 308° (NW) 1,874 6.5 -23.9°
Enters shadow 19:30:44 53° 4° (N) 709 3.4 -24.5°
